TimeEET,TemperatureF,Dew PointF,Humidity,Sea Level PressureIn,VisibilityMPH,Wind Direction,Wind SpeedMPH,Gust SpeedMPH,PrecipitationIn,Events,Conditions,WindDirDegrees,DateUTC
12:20 AM,53.6,44.6,72,30.21,6.2,North,11.5,-,N/A,,Scattered Clouds,10,2012-11-23 22:20:00
12:50 AM,53.6,44.6,72,30.21,6.2,NNE,10.4,-,N/A,,Scattered Clouds,20,2012-11-23 22:50:00
1:20 AM,51.8,44.6,76,30.21,6.2,North,12.7,-,N/A,,Scattered Clouds,360,2012-11-23 23:20:00
1:50 AM,50.0,44.6,82,30.18,6.2,North,12.7,-,N/A,,Scattered Clouds,350,2012-11-23 23:50:00
2:00 AM,51,45,73,30.21,6,North,12.7,,,,Partly Cloudy,350,2012-11-24 00:00:00
2:20 AM,50.0,46.4,87,30.21,6.2,North,9.2,-,N/A,,Scattered Clouds,350,2012-11-24 00:20:00
2:50 AM,48.2,46.4,93,30.21,6.2,North,9.2,-,N/A,,Mostly Cloudy,350,2012-11-24 00:50:00
3:20 AM,48.2,46.4,93,30.18,6.2,North,11.5,-,N/A,,Mostly Cloudy,350,2012-11-24 01:20:00
3:50 AM,50.0,46.4,87,30.18,6.2,North,10.4,-,N/A,,Mostly Cloudy,350,2012-11-24 01:50:00
4:20 AM,50.0,46.4,87,30.18,6.2,North,9.2,-,N/A,,Mostly Cloudy,360,2012-11-24 02:20:00
4:50 AM,51.8,46.4,82,30.18,6.2,North,15.0,-,N/A,,Mostly Cloudy,350,2012-11-24 02:50:00
6:20 AM,51.8,46.4,82,30.18,6.2,NNW,16.1,-,N/A,,Mostly Cloudy,340,2012-11-24 04:20:00
6:50 AM,51.8,46.4,82,30.18,6.2,North,18.4,-,N/A,,Mostly Cloudy,350,2012-11-24 04:50:00
7:20 AM,50.0,48.2,94,30.18,6.2,NNW,20.7,-,N/A,,Mostly Cloudy,340,2012-11-24 05:20:00
7:50 AM,50.0,48.2,94,30.18,6.2,NW,16.1,-,N/A,,Mostly Cloudy,320,2012-11-24 05:50:00
8:00 AM,50,49,94,30.21,6,NW,16.1,,,,Mostly Cloudy,320,2012-11-24 06:00:00
8:20 AM,50.0,50.0,100,30.18,6.2,NNW,15.0,-,N/A,,Mostly Cloudy,330,2012-11-24 06:20:00
8:50 AM,51.8,50.0,94,30.18,6.2,NW,15.0,-,N/A,,Mostly Cloudy,320,2012-11-24 06:50:00
9:20 AM,53.6,51.8,94,30.21,6.2,North,10.4,-,N/A,,Mostly Cloudy,350,2012-11-24 07:20:00
9:50 AM,55.4,46.4,72,30.21,6.2,NNE,9.2,-,N/A,,Mostly Cloudy,30,2012-11-24 07:50:00
10:20 AM,55.4,46.4,72,30.21,6.2,NNE,10.4,-,N/A,,Mostly Cloudy,30,2012-11-24 08:20:00
10:50 AM,53.6,48.2,82,30.21,6.2,NNE,15.0,-,N/A,,Mostly Cloudy,20,2012-11-24 08:50:00
11:20 AM,53.6,48.2,82,30.21,6.2,NNE,13.8,-,N/A,,Mostly Cloudy,20,2012-11-24 09:20:00
11:50 AM,53.6,48.2,82,30.18,6.2,NNE,16.1,-,N/A,Rain,Light Rain Showers,20,2012-11-24 09:50:00
12:20 PM,53.6,46.4,77,30.18,6.2,NNE,11.5,-,N/A,Rain,Light Rain Showers,30,2012-11-24 10:20:00
12:50 PM,55.4,44.6,67,30.18,6.2,NE,10.4,-,N/A,,Mostly Cloudy,40,2012-11-24 10:50:00
1:20 PM,55.4,42.8,63,30.18,6.2,NNE,12.7,-,N/A,,Mostly Cloudy,30,2012-11-24 11:20:00
1:50 PM,57.2,42.8,59,30.18,6.2,NNE,10.4,-,N/A,,Mostly Cloudy,20,2012-11-24 11:50:00
2:00 PM,58,43,46,30.20,6,NNE,10.4,,,,Partly Cloudy,20,2012-11-24 12:00:00
2:20 PM,57.2,42.8,59,30.18,6.2,NNE,15.0,-,N/A,,Mostly Cloudy,20,2012-11-24 12:20:00
2:50 PM,55.4,42.8,63,30.18,6.2,NNE,13.8,-,N/A,,Mostly Cloudy,30,2012-11-24 12:50:00
3:20 PM,55.4,44.6,67,30.18,6.2,NE,12.7,-,N/A,,Mostly Cloudy,40,2012-11-24 13:20:00
3:50 PM,55.4,46.4,72,30.21,6.2,NNE,9.2,-,N/A,,Mostly Cloudy,30,2012-11-24 13:50:00
4:20 PM,53.6,46.4,77,30.21,6.2,North,13.8,-,N/A,,Mostly Cloudy,10,2012-11-24 14:20:00
4:50 PM,51.8,48.2,88,30.21,6.2,North,13.8,-,N/A,Rain,Light Rain Showers,360,2012-11-24 14:50:00
5:20 PM,51.8,50.0,94,30.24,6.2,North,13.8,-,N/A,Rain,Light Rain Showers,360,2012-11-24 15:20:00
5:50 PM,50.0,48.2,94,30.24,6.2,North,12.7,-,N/A,Rain,Light Rain Showers,360,2012-11-24 15:50:00
6:20 PM,50.0,48.2,94,30.24,6.2,North,12.7,-,N/A,Rain,Light Rain Showers,360,2012-11-24 16:20:00
6:50 PM,50.0,48.2,94,30.24,3.7,North,13.8,-,N/A,Rain,Light Rain Showers,360,2012-11-24 16:50:00
7:20 PM,50.0,48.2,94,30.24,3.7,North,12.7,-,N/A,Rain,Light Rain Showers,360,2012-11-24 17:20:00
7:50 PM,50.0,46.4,87,30.24,3.1,North,15.0,-,N/A,Rain,Light Rain Showers,360,2012-11-24 17:50:00
8:00 PM,49,47,91,30.26,3,North,15.0,,,Rain,Light Rain Showers,0,2012-11-24 18:00:00
8:20 PM,50.0,46.4,87,30.24,3.1,North,16.1,-,N/A,Rain,Light Rain Showers,360,2012-11-24 18:20:00
8:50 PM,50.0,42.8,76,30.24,3.7,North,15.0,-,N/A,,Mostly Cloudy,10,2012-11-24 18:50:00
9:20 PM,50.0,42.8,76,30.24,3.7,North,13.8,-,N/A,,Mostly Cloudy,10,2012-11-24 19:20:00
9:50 PM,50.0,42.8,76,30.24,6.2,North,15.0,-,N/A,,Mostly Cloudy,10,2012-11-24 19:50:00
10:20 PM,50.0,42.8,76,30.24,6.2,North,13.8,-,N/A,,Mostly Cloudy,10,2012-11-24 20:20:00
10:50 PM,50.0,41.0,71,30.24,6.2,North,11.5,-,N/A,,Mostly Cloudy,10,2012-11-24 20:50:00
11:20 PM,50.0,41.0,71,30.24,6.2,North,11.5,-,N/A,,Mostly Cloudy,360,2012-11-24 21:20:00
11:50 PM,50.0,41.0,71,30.24,6.2,NNE,9.2,-,N/A,,Mostly Cloudy,20,2012-11-24 21:50:00